A/2024 G8

Japanese version
Home page
Updated on August 21, 2024

---------------------------------------------------------------------

* Profile

Discovery Date April 4, 2024
Magnitude 21.10 mag
Discoverer Mt. Lemmon Survey

* Orbital Elements

Epoch 2024 Oct. 17.0 TT = JDT 2460600.5                                         
T 2024 June 15.60479 TT                                 Rudenko                 
q   1.1723943            (2000.0)            P               Q                  
z  +0.0069631      Peri.  249.15879     -0.37245539     +0.90767005             
 +/-0.0026034      Node    11.24770     +0.41343734     +0.34887507             
e   0.9918365      Incl.   97.40998     -0.83087096     -0.23328366             
H   20.0                                                                        
>From 51 observations 2024 Apr. 3-May 28, mean residual 0".3.                    

* Magnitudes Graph

        H = 20.0  G = 0.15

---------------------------------------------------------------------

The orbital elements are published on M.P.E.C. 2024-Q05.
The magnitudes graphs are made with Comet for Windows.

---------------------------------------------------------------------

Copyright(C) Seiichi Yoshida (comet@aerith.net). All rights reserved.